| Date Time MST |
Temp °F |
RH % |
DewPt °F |
Wind mph |
Dir ° |
Gust mph |
Dir ° |
Press in Hg |
Solar W/m^2 |
Prec in |
|---|---|---|---|---|---|---|---|---|---|---|
| 2026-05-05 16:15 | 32.6 | 98.0 | 32.1 | 5.1 | 297 | 5.8 | 313 | 24.806 | 69.2 | 0.00 |
| 2026-05-05 16:10 | 32.5 | 98.0 | 32.0 | 6.3 | 303 | 7.2 | 304 | 24.809 | 75.8 | 0.00 |
| 2026-05-05 16:05 | 32.4 | 98.0 | 31.9 | 7.1 | 303 | 8.6 | 303 | 24.810 | 77.0 | 0.00 |
| 2026-05-05 16:00 | 32.3 | 98.1 | 31.8 | 6.8 | 303 | 7.9 | 298 | 24.810 | 68.3 | 0.01 |
| 2026-05-05 15:55 | 32.2 | 98.0 | 31.7 | 6.9 | 305 | 8.5 | 301 | 24.810 | 61.2 | 0.00 |
| 2026-05-05 15:50 | 32.1 | 97.9 | 31.5 | 6.8 | 297 | 7.9 | 296 | 24.809 | 56.7 | 0.00 |
| 2026-05-05 15:45 | 32.0 | 98.0 | 31.5 | 7.4 | 297 | 8.5 | 290 | 24.809 | 55.8 | 0.00 |
| 2026-05-05 15:40 | 31.9 | 97.9 | 31.4 | 7.8 | 290 | 9.1 | 290 | 24.807 | 57.8 | 0.00 |
| 2026-05-05 15:35 | 32.0 | 97.9 | 31.4 | 7.1 | 289 | 8.3 | 293 | 24.806 | 57.1 | 0.01 |
| 2026-05-05 15:30 | 31.9 | 98.0 | 31.4 | 6.9 | 302 | 8.2 | 305 | 24.809 | 47.2 | 0.00 |
| 2026-05-05 15:25 | 31.9 | 97.9 | 31.4 | 6.7 | 305 | 7.6 | 293 | 24.809 | 37.0 | 0.00 |
| 2026-05-05 15:20 | 32.0 | 97.9 | 31.4 | 7.7 | 301 | 9.1 | 306 | 24.809 | 36.2 | 0.00 |
| 2026-05-05 15:15 | 32.0 | 97.9 | 31.5 | 7.2 | 305 | 9.3 | 303 | 24.807 | 37.4 | 0.00 |
| 2026-05-05 15:10 | 32.0 | 97.9 | 31.5 | 7.7 | 315 | 9.1 | 330 | 24.803 | 43.3 | 0.00 |
| 2026-05-05 15:05 | 32.1 | 97.8 | 31.5 | 7.9 | 331 | 9.4 | 327 | 24.803 | 46.4 | 0.00 |
| 2026-05-05 15:00 | 32.2 | 97.7 | 31.6 | 7.8 | 318 | 9.2 | 319 | 24.805 | 52.6 | 0.01 |
| 2026-05-05 14:55 | 32.2 | 97.8 | 31.6 | 8.0 | 325 | 9.1 | 323 | 24.807 | 65.6 | 0.00 |
| 2026-05-05 14:50 | 32.3 | 97.7 | 31.7 | 7.1 | 310 | 9.0 | 312 | 24.811 | 89.1 | 0.00 |
| 2026-05-05 14:45 | 32.3 | 97.7 | 31.7 | 6.8 | 318 | 8.4 | 320 | 24.808 | 104.5 | 0.01 |
| 2026-05-05 14:40 | 32.2 | 97.6 | 31.6 | 6.7 | 326 | 8.6 | 328 | 24.804 | 119.5 | 0.00 |
| 2026-05-05 14:35 | 32.1 | 97.7 | 31.5 | 7.9 | 322 | 10.2 | 313 | 24.807 | 113.7 | 0.00 |
| 2026-05-05 14:30 | 32.2 | 97.7 | 31.6 | 8.3 | 319 | 10.3 | 318 | 24.808 | 149.4 | 0.00 |
| 2026-05-05 14:25 | 32.3 | 97.6 | 31.7 | 7.9 | 315 | 9.2 | 327 | 24.809 | 176.4 | 0.01 |
| 2026-05-05 14:20 | 32.4 | 97.7 | 31.8 | 7.2 | 314 | 8.7 | 323 | 24.809 | 161.6 | 0.00 |
| 2026-05-05 14:15 | 32.9 | 97.6 | 32.3 | 7.5 | 327 | 9.5 | 330 | 24.810 | 156.2 | 0.00 |
| 2026-05-05 14:10 | 32.8 | 97.6 | 32.2 | 6.6 | 333 | 7.8 | 333 | 24.811 | 175.1 | 0.01 |
| 2026-05-05 14:05 | 32.7 | 97.6 | 32.1 | 7.5 | 348 | 8.7 | 344 | 24.812 | 161.2 | 0.00 |
| 2026-05-05 14:00 | 32.7 | 97.6 | 32.1 | 7.3 | 342 | 9.3 | 342 | 24.810 | 150.2 | 0.00 |
| 2026-05-05 13:55 | 32.7 | 97.5 | 32.1 | 7.9 | 340 | 10.4 | 339 | 24.812 | 162.0 | 0.01 |
| 2026-05-05 13:50 | 32.7 | 97.5 | 32.1 | 7.5 | 341 | 10.2 | 338 | 24.813 | 175.6 | 0.00 |
| Date Time MST |
Temp °C |
RH % |
DewPt °C |
Wind m/s |
Dir ° |
Gust m/s |
Dir ° |
Press hPa |
Solar W/m^2 |
Prec mm |
|---|---|---|---|---|---|---|---|---|---|---|
| 2026-05-05 16:15 | 0.3 | 98.0 | 0.1 | 2.3 | 297 | 2.6 | 313 | 840.04 | 69.2 | 0.00 |
| 2026-05-05 16:10 | 0.3 | 98.0 | 0.0 | 2.8 | 303 | 3.2 | 304 | 840.13 | 75.8 | 0.00 |
| 2026-05-05 16:05 | 0.2 | 98.0 | -0.0 | 3.2 | 303 | 3.9 | 303 | 840.15 | 77.0 | 0.00 |
| 2026-05-05 16:00 | 0.1 | 98.1 | -0.1 | 3.0 | 303 | 3.5 | 298 | 840.16 | 68.3 | 0.25 |
| 2026-05-05 15:55 | 0.1 | 98.0 | -0.2 | 3.1 | 305 | 3.8 | 301 | 840.15 | 61.2 | 0.00 |
| 2026-05-05 15:50 | 0.0 | 97.9 | -0.3 | 3.0 | 297 | 3.5 | 296 | 840.12 | 56.7 | 0.00 |
| 2026-05-05 15:45 | -0.0 | 98.0 | -0.3 | 3.3 | 297 | 3.8 | 290 | 840.13 | 55.8 | 0.00 |
| 2026-05-05 15:40 | -0.0 | 97.9 | -0.3 | 3.5 | 290 | 4.1 | 290 | 840.08 | 57.8 | 0.00 |
| 2026-05-05 15:35 | -0.0 | 97.9 | -0.3 | 3.2 | 289 | 3.7 | 293 | 840.02 | 57.1 | 0.25 |
| 2026-05-05 15:30 | -0.0 | 98.0 | -0.3 | 3.1 | 302 | 3.6 | 305 | 840.11 | 47.2 | 0.00 |
| 2026-05-05 15:25 | -0.0 | 97.9 | -0.3 | 3.0 | 305 | 3.4 | 293 | 840.14 | 37.0 | 0.00 |
| 2026-05-05 15:20 | -0.0 | 97.9 | -0.3 | 3.5 | 301 | 4.1 | 306 | 840.12 | 36.2 | 0.00 |
| 2026-05-05 15:15 | 0.0 | 97.9 | -0.3 | 3.2 | 305 | 4.2 | 303 | 840.07 | 37.4 | 0.00 |
| 2026-05-05 15:10 | 0.0 | 97.9 | -0.3 | 3.4 | 315 | 4.1 | 330 | 839.93 | 43.3 | 0.00 |
| 2026-05-05 15:05 | 0.0 | 97.8 | -0.3 | 3.5 | 331 | 4.2 | 327 | 839.93 | 46.4 | 0.00 |
| 2026-05-05 15:00 | 0.1 | 97.7 | -0.2 | 3.5 | 318 | 4.1 | 319 | 839.98 | 52.6 | 0.25 |
| 2026-05-05 14:55 | 0.1 | 97.8 | -0.2 | 3.6 | 325 | 4.1 | 323 | 840.05 | 65.6 | 0.00 |
| 2026-05-05 14:50 | 0.2 | 97.7 | -0.2 | 3.2 | 310 | 4.0 | 312 | 840.19 | 89.1 | 0.00 |
| 2026-05-05 14:45 | 0.1 | 97.7 | -0.2 | 3.1 | 318 | 3.7 | 320 | 840.08 | 104.5 | 0.25 |
| 2026-05-05 14:40 | 0.1 | 97.6 | -0.2 | 3.0 | 326 | 3.9 | 328 | 839.96 | 119.5 | 0.00 |
| 2026-05-05 14:35 | 0.1 | 97.7 | -0.3 | 3.5 | 322 | 4.6 | 313 | 840.06 | 113.7 | 0.00 |
| 2026-05-05 14:30 | 0.1 | 97.7 | -0.2 | 3.7 | 319 | 4.6 | 318 | 840.11 | 149.4 | 0.00 |
| 2026-05-05 14:25 | 0.2 | 97.6 | -0.2 | 3.5 | 315 | 4.1 | 327 | 840.11 | 176.4 | 0.25 |
| 2026-05-05 14:20 | 0.2 | 97.7 | -0.1 | 3.2 | 314 | 3.9 | 323 | 840.12 | 161.6 | 0.00 |
| 2026-05-05 14:15 | 0.5 | 97.6 | 0.2 | 3.3 | 327 | 4.2 | 330 | 840.17 | 156.2 | 0.00 |
| 2026-05-05 14:10 | 0.5 | 97.6 | 0.1 | 2.9 | 333 | 3.5 | 333 | 840.21 | 175.1 | 0.25 |
| 2026-05-05 14:05 | 0.4 | 97.6 | 0.1 | 3.4 | 348 | 3.9 | 344 | 840.24 | 161.2 | 0.00 |
| 2026-05-05 14:00 | 0.4 | 97.6 | 0.0 | 3.2 | 342 | 4.1 | 342 | 840.17 | 150.2 | 0.00 |
| 2026-05-05 13:55 | 0.4 | 97.5 | 0.1 | 3.5 | 340 | 4.7 | 339 | 840.24 | 162.0 | 0.25 |
| 2026-05-05 13:50 | 0.4 | 97.5 | 0.0 | 3.3 | 341 | 4.5 | 338 | 840.25 | 175.6 | 0.00 |